Voltar ao catálogo

STARLINK-35625

AtivoComunicaçõesVLEO
NORAD 66140·PAYLOAD·🇺🇸 United States

Lançado Oct 22, 2025 de Vandenberg Space Force Base

Loading…

Próximas Passagens (próximas 24 horas)

TLE

AtualizadoSource: CelesTrak SupGP

Época: Sep 15, 2026, 03:02 UTC

1 66140C 25237AC  26258.12687500 -.00045035  00000+0 -13305-2 0  2588
2 66140  53.1573 236.6249 0001315  88.3642  55.5204 15.34415177    16

Acompanhe STARLINK-35625 em tempo real com AllMySat

Download on the App Store